SHIYAN 10-02 (SY-10 02) (54878 NORAD) Tracking and Keplerian Element Data

This shows tracking and keplerian element data for the satellite.

Feedback or suggestion? Click here.




ElementValue
Catalog54878
NameSHIYAN 10-02 (SY-10 02)
Epoch Orbit4
Epoch Day363.79780338
Epoch Year2022
RAAN118.8361
Inclination50.9485
Eccentricity0.7526053
Argument of Perigee225.202
Mean Anonmoly62.4639
Mean Motion2.01166402
Decay Rate-1.22E-05
L11 54878U 22178A 22363.79780338 -.00001220 -29674-6 00000+0 0 9993
L22 54878 50.9485 118.8361 7526053 225.2020 62.4639 2.01166402 40



Live tracking and technical data element details for SHIYAN 10-02 (SY-10 02) (NORAD 54878). SHIYAN 10-02 (SY-10 02) can be tracked NOW for your location showing map with azimuth and elevation plus other details from your city location.







IsCatalogInMostPopularTable: catalog: 54878, numindb: 3
Update: records affected: 1



GetName: 54878 SHIYAN 10-02 (SY-10 02)

Hit Count: updated at: Tue, 07 Feb 2023 14:51:47 GMT